sat.trackr.live / text

‹ back to catalog

STARLINK-35300

NORAD 65800 · 2025-218K

PAYLOAD ACTIVE UNKNOWN

§ Identity

Operator
Country
US
Launch date
2025-09-26
Launch site
AFWTR
Launch vehicle
Mass (kg)
RCS (m²)

Purposes: comms

External: N2YO · Heavens-Above · Gunter

§ Orbital elements

Epoch: 2026-09-20T13:45:53.968320Z

Period
93.91 min
Inclination
97.2846°
Eccentricity
0.0000872
Mean motion
15.33452432 rev/d
Perigee alt
464.9 km
Apogee alt
466.1 km
Semi-major
6,843.7 km
B*
3.0914e-4
RAAN
120.9241°
Arg perigee
76.2527°
Mean anomaly
283.8813°
Rev number
5,434

§ Raw data

STARLINK-353001 65800U 25218K   26263.57354130  .00009921  00000+0  30914-3 0  99942 65800  97.2846 120.9241 0000872  76.2527 283.8813 15.33452432 54343

JSON: /api/v1/satellites/65800 · /tle

For live sub-satellite position, see the globe view (requires WebGL).

§ Visibility from observer

Set your observer location to see the next 7 days of passes ≥ 10°. The values pass through the URL so the page stays shareable.

No JS? Fill the form by hand. The geolocation button needs JavaScript.